TimeCST,TemperatureF,Dew PointF,Humidity,Sea Level PressureIn,VisibilityMPH,Wind Direction,Wind SpeedMPH,Gust SpeedMPH,PrecipitationIn,Events,Conditions,WindDirDegrees,DateUTC
12:15 AM,14.7,12.4,90,29.66,5.0,Calm,Calm,-,N/A,,Clear,0,2014-02-19 06:15:00
12:35 AM,10.0,7.7,90,29.68,0.2,Calm,Calm,-,N/A,Fog,Light Freezing Fog,0,2014-02-19 06:35:00
12:55 AM,14.7,12.7,92,29.67,5.0,Calm,Calm,-,N/A,,Clear,0,2014-02-19 06:55:00
1:15 AM,11.7,9.7,92,29.68,4.0,Calm,Calm,-,N/A,,Clear,0,2014-02-19 07:15:00
1:35 AM,10.2,8.2,92,29.69,0.2,Calm,Calm,-,N/A,Fog,Light Freezing Fog,0,2014-02-19 07:35:00
1:55 AM,8.8,6.1,89,29.69,0.8,Calm,Calm,-,N/A,,Mist,0,2014-02-19 07:55:00
2:15 AM,5.5,2.1,86,29.69,4.0,Calm,Calm,-,N/A,,Clear,0,2014-02-19 08:15:00
2:35 AM,6.8,4.1,89,29.70,4.0,Calm,Calm,-,N/A,,Clear,0,2014-02-19 08:35:00
2:55 AM,7.7,5.2,89,29.70,1.5,Calm,Calm,-,N/A,,Mist,0,2014-02-19 08:55:00
3:15 AM,5.7,3.0,89,29.70,7.0,Calm,Calm,-,N/A,,Clear,0,2014-02-19 09:15:00
3:35 AM,5.5,2.5,87,29.70,10.0,Calm,Calm,-,N/A,,Clear,0,2014-02-19 09:35:00
3:55 AM,5.2,2.8,90,29.71,3.0,Calm,Calm,-,N/A,,Clear,0,2014-02-19 09:55:00
4:15 AM,5.7,2.8,88,29.71,10.0,Calm,Calm,-,N/A,,Clear,0,2014-02-19 10:15:00
4:35 AM,3.9,0.5,86,29.71,10.0,Calm,Calm,-,N/A,,Clear,0,2014-02-19 10:35:00
4:55 AM,3.4,0.3,87,29.72,10.0,Calm,Calm,-,N/A,,Clear,0,2014-02-19 10:55:00
5:15 AM,5.7,2.8,88,29.73,5.0,Calm,Calm,-,N/A,,Clear,0,2014-02-19 11:15:00
5:35 AM,1.6,-2.2,84,29.73,10.0,Calm,Calm,-,N/A,,Clear,0,2014-02-19 11:35:00
5:55 AM,5.4,2.5,88,29.73,7.0,Calm,Calm,-,N/A,,Clear,0,2014-02-19 11:55:00
6:15 AM,3.0,-0.0,87,29.74,10.0,Calm,Calm,-,N/A,,Clear,0,2014-02-19 12:15:00
6:35 AM,1.8,-1.5,86,29.75,0.8,Calm,Calm,-,N/A,,Mist,0,2014-02-19 12:35:00
6:55 AM,2.7,-0.9,85,29.75,10.0,SW,3.5,-,N/A,,Clear,220,2014-02-19 12:55:00
7:15 AM,0.3,-3.5,84,29.76,10.0,SSW,3.5,-,N/A,,Clear,210,2014-02-19 13:15:00
7:35 AM,4.3,1.0,86,29.76,0.5,SSW,3.5,-,N/A,Fog,Light Freezing Fog,210,2014-02-19 13:35:00
7:55 AM,6.4,3.4,87,29.77,0.8,SSW,3.5,-,N/A,,Mist,200,2014-02-19 13:55:00
8:15 AM,12.0,9.3,89,29.77,0.5,Calm,Calm,-,N/A,Fog,Light Freezing Fog,0,2014-02-19 14:15:00
8:35 AM,11.3,9.0,90,29.78,0.5,Calm,Calm,-,N/A,Fog,Light Freezing Fog,0,2014-02-19 14:35:00
8:55 AM,17.1,15.6,94,29.78,7.0,South,3.5,-,N/A,,Clear,180,2014-02-19 14:55:00
9:15 AM,18.0,15.6,91,29.78,10.0,Calm,Calm,-,N/A,,Clear,0,2014-02-19 15:15:00
9:35 AM,23.0,21.9,96,29.79,10.0,SSW,6.9,-,N/A,,Clear,200,2014-02-19 15:35:00
9:55 AM,25.2,23.9,95,29.79,10.0,SSW,3.5,-,N/A,,Clear,210,2014-02-19 15:55:00
10:15 AM,26.1,25.0,96,29.80,10.0,SW,5.8,-,N/A,,Clear,220,2014-02-19 16:15:00
10:35 AM,28.2,23.7,83,29.80,10.0,SW,5.8,-,N/A,,Clear,220,2014-02-19 16:35:00
10:55 AM,30.7,22.1,70,29.80,10.0,SSW,4.6,-,N/A,,Clear,200,2014-02-19 16:55:00
11:15 AM,32.2,21.9,66,29.80,10.0,SSW,5.8,-,N/A,,Clear,210,2014-02-19 17:15:00
11:35 AM,33.6,21.7,62,29.80,10.0,SSW,6.9,-,N/A,,Clear,210,2014-02-19 17:35:00
11:55 AM,34.9,21.9,59,29.79,10.0,SSW,8.1,-,N/A,,Clear,210,2014-02-19 17:55:00
12:15 PM,36.5,21.2,54,29.79,10.0,SW,8.1,-,N/A,,Clear,220,2014-02-19 18:15:00
12:35 PM,37.4,21.2,52,29.79,10.0,SSW,10.4,-,N/A,,Clear,210,2014-02-19 18:35:00
12:55 PM,38.3,21.4,51,29.79,10.0,SSW,9.2,-,N/A,,Clear,210,2014-02-19 18:55:00
1:15 PM,38.8,21.4,50,29.78,10.0,SSW,9.2,-,N/A,,Clear,210,2014-02-19 19:15:00
1:35 PM,39.6,21.2,48,29.78,10.0,SW,8.1,-,N/A,,Clear,220,2014-02-19 19:35:00
1:55 PM,40.3,20.5,45,29.78,10.0,SSW,6.9,-,N/A,,Clear,210,2014-02-19 19:55:00
2:15 PM,40.1,21.6,48,29.78,10.0,SSW,6.9,-,N/A,,Clear,210,2014-02-19 20:15:00
2:35 PM,39.6,21.4,48,29.78,10.0,SSW,8.1,-,N/A,,Clear,210,2014-02-19 20:35:00
2:55 PM,39.9,21.4,48,29.78,10.0,SW,9.2,-,N/A,,Clear,220,2014-02-19 20:55:00
3:35 PM,40.3,20.8,46,29.78,10.0,SSW,9.2,-,N/A,,Clear,210,2014-02-19 21:35:00
3:55 PM,39.9,21.2,47,29.79,10.0,SW,6.9,-,N/A,,Clear,220,2014-02-19 21:55:00
4:15 PM,40.1,21.4,47,29.80,10.0,SSW,6.9,-,N/A,,Clear,210,2014-02-19 22:15:00
4:35 PM,40.1,21.2,47,29.80,10.0,SSW,8.1,-,N/A,,Clear,210,2014-02-19 22:35:00
4:55 PM,38.3,23.7,56,29.80,10.0,South,9.2,-,N/A,,Clear,180,2014-02-19 22:55:00
5:15 PM,36.5,23.9,60,29.80,10.0,South,5.8,-,N/A,,Clear,170,2014-02-19 23:15:00
5:35 PM,35.8,24.3,63,29.81,10.0,South,4.6,-,N/A,,Clear,170,2014-02-19 23:35:00
5:55 PM,34.0,24.6,69,29.81,10.0,South,5.8,-,N/A,,Clear,180,2014-02-19 23:55:00
6:15 PM,34.3,26.1,72,29.81,10.0,SSE,3.5,-,N/A,,Clear,150,2014-02-20 00:15:00
6:35 PM,31.5,24.8,76,29.80,10.0,ESE,3.5,-,N/A,,Clear,110,2014-02-20 00:35:00
6:55 PM,30.6,25.3,81,29.80,10.0,ESE,4.6,-,N/A,,Clear,120,2014-02-20 00:55:00
7:15 PM,31.1,25.0,78,29.80,10.0,ESE,3.5,-,N/A,,Scattered Clouds,110,2014-02-20 01:15:00
7:35 PM,28.9,24.8,84,29.79,10.0,ESE,4.6,-,N/A,,Scattered Clouds,110,2014-02-20 01:35:00
7:55 PM,30.7,26.1,83,29.78,10.0,SE,4.6,-,N/A,,Mostly Cloudy,130,2014-02-20 01:55:00
8:15 PM,34.7,28.4,78,29.78,10.0,SSE,5.8,-,N/A,,Overcast,160,2014-02-20 02:15:00
8:35 PM,35.4,28.6,76,29.78,10.0,SSE,5.8,-,N/A,,Overcast,160,2014-02-20 02:35:00
8:55 PM,35.6,28.9,77,29.79,10.0,SSE,4.6,-,N/A,,Overcast,150,2014-02-20 02:55:00
9:15 PM,35.2,28.9,78,29.78,10.0,SE,4.6,-,N/A,,Overcast,140,2014-02-20 03:15:00
9:35 PM,34.9,28.8,78,29.78,10.0,SE,3.5,-,N/A,,Overcast,130,2014-02-20 03:35:00
9:55 PM,34.9,28.6,78,29.78,10.0,SE,4.6,-,N/A,,Overcast,140,2014-02-20 03:55:00
10:35 PM,33.4,28.2,81,29.77,10.0,SE,5.8,-,N/A,,Mostly Cloudy,140,2014-02-20 04:35:00
10:55 PM,34.3,28.4,79,29.78,10.0,SSE,4.6,-,N/A,,Mostly Cloudy,150,2014-02-20 04:55:00
11:15 PM,34.3,28.4,79,29.78,10.0,SSE,4.6,-,N/A,,Mostly Cloudy,150,2014-02-20 05:15:00
11:35 PM,34.3,28.4,79,29.77,10.0,SSE,5.8,-,N/A,,Scattered Clouds,150,2014-02-20 05:35:00
11:55 PM,34.7,28.6,78,29.78,10.0,SSE,6.9,-,N/A,,Clear,150,2014-02-20 05:55:00